Terminal Aerodrome Forecast
Issued by NWS

Home | Current Version | Previous Version | Text Only | Print | Product List | Glossary On
Versions: 1 2 3 4 5 6 7 8 9 10 11 12 13 14 15 16 17 18 19 20 21 22 23 24 25 26 27 28 29 30 31 32 33 34 35 36 37 38 39 40 41 42 43 44 45 46 47 48 49 50
663
FTUS46 KEKA 280539
TAFACV
TAF
KACV 280539Z 2806/2906 17005KT 6SM BR OVC005
      TEMPO 2807/2808 4SM BR
     FM280800 19004KT 3SM BR OVC005
     FM281000 16004KT 1SM BR OVC003
     FM281200 VRB03KT 1/2SM FG OVC002
     FM281800 25005KT P6SM BKN006
     FM282000 29007KT P6SM SCT006=

USA.gov is the U.S. government's official web portal to all federal, state and local government web resources and services.